Regional Weather Roundup
Issued by NWS

Home | Current Version | Previous Version | Text Only | Print | Product List | Glossary Off
Versions: 1 2 3 4 5 6 7 8 9 10 11 12 13 14 15 16 17 18 19 20 21 22 23 24 25 26 27 28 29 30 31 32 33 34 35 36 37 38 39 40 41 42 43 44 45 46 47 48 49 50

000
ASUS43 KLMK 190502
RWRKY
KENTUCKY REGIONAL WEATHER ROUNDUP
NATIONAL WEATHER SERVICE LOUISVILLE KY
1200 AM EST SUN FEB 19 2017

NOTE "FAIR" INDICATES FEW OR NO CLOUDS BELOW 12,000 FEET
WITH NO SIGNIFICANT WEATHER AND/OR OBSTRUCTIONS TO VISIBILITY.

KYZ001>023-026-027-061>063-070>075-190600-
WESTERN AND SOUTH CENTRAL KENTUCKY

CITY           SKY/WX    TMP DP  RH WIND       PRES   REMARKS
PADUCAH        CLOUDY    51  49  92 S3        29.95R FOG
HENDERSON      CLOUDY    50  45  81 S5        29.94R
OWENSBORO      CLOUDY    50  48  93 S5        29.96R
HOPKINSVILLE   NOT AVBL
BOWLING GREEN  MOCLDY    50  46  86 S5        29.97R
GLASGOW        NOT AVBL
$$

KYZ024-025-028>034-038-045-046-053-190600-
NORTH CENTRAL KENTUCKY

CITY           SKY/WX    TMP DP  RH WIND       PRES   REMARKS
LOUISVILLE/SDF CLOUDY    50  47  89 SW5       29.95R
LOUISVILLE/LOU CLOUDY    50  47  89 S3        29.95S FOG
FORT KNOX      NOT AVBL
$$

KYZ035>037-039>044-047>052-055>060-089>105-190600-
NORTHEAST KENTUCKY

CITY           SKY/WX    TMP DP  RH WIND       PRES   REMARKS
LEXINGTON      LGT RAIN  47  44  90 SW6       29.96R
COVINGTON      CLOUDY    51  48  89 SW6       29.92R
FRANKFORT      CLOUDY    48  45  89 SW7       29.94R
$$

KYZ054-064>069-076>088-106>120-190600-
SOUTHEAST KENTUCKY

CITY           SKY/WX    TMP DP  RH WIND       PRES   REMARKS
JACKSON        FOG       47  45  93 SW3       29.95R VSB 1/4
LONDON         FOG       46  44  93 S3        29.96S VSB 1/2
SOMERSET       CLOUDY    45  45 100 CALM      29.98S
MIDDLESBORO    CLOUDY    47  47 100 CALM      29.98S FOG
MONTICELLO     CLOUDY    44  44 100 CALM      29.99R
$$




USA.gov is the U.S. government's official web portal to all federal, state and local government web resources and services.